Regional Weather Roundup
Issued by NWS

Home | Current Version | Previous Version | Graphics & Text | Print | Product List | Glossary Off
Versions: 1 2 3 4 5 6 7 8 9 10 11 12 13 14 15 16 17 18 19 20 21 22 23 24 25 26

000
ASUS45 KCYS 241810
RWRWY

WYOMING REGIONAL WEATHER ROUNDUP
NATIONAL WEATHER SERVICE CHEYENNE WY
1200 PM MDT FRI OCT 24 2014

NOTE:  "FAIR" INDICATES FEW OR NO CLOUDS BELOW 12,000 FEET
WITH NO SIGNIFICANT WEATHER AND/OR OBSTRUCTIONS TO VISIBILITY.

WYZ001-241900-
YELLOWSTONE NATIONAL PARK

CITY           SKY/WX    TMP DP  RH WIND       PRES   REMARKS
LK YELLOWSTONE   N/A     47  30  51 VRB3      30.25
6HR MIN TEMP:  42; 6HR MAX TEMP:  47;

W YELLOWSTONE  NOT AVBL

$$
WYZ002>013-054>058-071-098>099-241900-
NORTHERN WYOMING

CITY           SKY/WX    TMP DP  RH WIND       PRES   REMARKS
JACKSON        PTSUNNY   57  30  35 S10       30.21
CODY           PTSUNNY   68  28  22 SW9       30.06
GREYBULL       CLOUDY    55  28  35 CALM      30.04F
6HR MIN TEMP:  37; 6HR MAX TEMP:  55;

WORLAND        MOSUNNY   63  28  26 VRB5      30.05F
6HR MIN TEMP:  33; 6HR MAX TEMP:  63; 6HR PCP: TRACE;

SHERIDAN       PTSUNNY   64  31  28 NE3       30.07S
6HR MIN TEMP:  38; 6HR MAX TEMP:  64;

BUFFALO        CLOUDY    62  28  27 N7        30.11S
6HR MIN TEMP:  49; 6HR MAX TEMP:  63;

GILLETTE         N/A    N/A N/A N/A MISG        N/A
HULETT         FAIR      63  34  34 NE7       30.09
NEWCASTLE      FAIR      64  30  27 S5        30.07

$$
WYZ014>020-022>026-101>103-241900-
CENTRAL WYOMING

CITY           SKY/WX    TMP DP  RH WIND       PRES   REMARKS
BIG PINEY      SUNNY     56  29  35 CALM      30.27F
6HR MIN TEMP:  24; 6HR MAX TEMP:  56; 6HR PCP: TRACE;

PINEDALE       PTCLDY    55  28  35 CALM      30.29
DUBOIS         FAIR      61  23  23 NW16G28   30.18F
LANDER         MOSUNNY   61  28  28 CALM      30.12S
6HR MIN TEMP:  43; 6HR MAX TEMP:  62;

RIVERTON       SUNNY     60  27  28 E6        30.13F
6HR MIN TEMP:  37; 6HR MAX TEMP:  61;

CASPER         MOSUNNY   71  27  19 SW21G30   30.12F
6HR MIN TEMP:  49; 6HR MAX TEMP:  71;

DOUGLAS        SUNNY     75  24  15 W21G31    30.10F
6HR MIN TEMP:  41; 6HR MAX TEMP:  76;


$$
WYZ021-027>030-104>119-241900-
SOUTHERN WYOMING

CITY           SKY/WX    TMP DP  RH WIND       PRES   REMARKS
EVANSTON       SUNNY     64  25  22 SW22G28   30.29S
6HR MIN TEMP:  42; 6HR MAX TEMP:  64;

KEMMERER       CLEAR     61  27  27 W17       30.30S
FORT BRIDGER   FAIR      68  24  19 W20       30.31S
ROCK SPRINGS   SUNNY     59  30  33 CALM      30.28F
6HR MIN TEMP:  41; 6HR MAX TEMP:  60;

DIXON          FAIR      65  30  26 SW20G29   30.32F
RAWLINS        SUNNY     65  26  23 SW17G26   30.27F
6HR MIN TEMP:  44; 6HR MAX TEMP:  65;

SARATOGA       FAIR      66  27  22 SW20      30.29S
LARAMIE        MOSUNNY   65  26  23 SW22      30.28S
6HR MIN TEMP:  47; 6HR MAX TEMP:  65;

CHEYENNE       PTSUNNY   69  26  20 W17       30.22S
6HR MIN TEMP:  53; 6HR MAX TEMP:  69;

TORRINGTON     MOSUNNY   76  31  19 W21G26    30.08F
6HR MIN TEMP:  56; 6HR MAX TEMP:  76;

PINE BLUFFS    FAIR      75  27  16 W22       30.17S

$$



USA.gov is the U.S. government's official web portal to all federal, state and local government web resources and services.